Location: Hradec Kralove
(50.2170°N, 15.8330°E)
Time: 12:53:29
(UTC+02:00)

Explorer 7 - Pass Details

Date: 03 February 2023
Orbit: 478 x 657 km, 50.3° (Epoch: 26 March)

Event Time Altitude Azimuth Distance (km) Brightness Sun altitude
Rises 17:22:40 0° 285° (WNW) 2,861 11.5 -5.2°
Reaches altitude 10° 17:25:04 10° 277° (W) 1,984 10.9 -5.6°
Maximum altitude 17:29:11 34° 212° (SSW) 1,044 8.8 -6.2°
Drops below altitude 10° 17:33:28 10° 148° (SSE) 2,049 9.6 -6.8°
Sets 17:35:59 0° 139° (SE) 2,970 10.3 -7.2°
